Location: Gleizolles
(44.4833°N, 6.7667°E)
Time: 10:40:21
(UTC+00:00)

A-11 Canister half - Pass Details

Date: 13 June 2024
Orbit: 1515 x 1685 km, 47.2° (Epoch: 13 July)

Event Time Altitude Azimuth Distance (km) Brightness Sun altitude
Rises 00:57:27 0° 291° (WNW) 4,824 11.6 -19.6°
Reaches altitude 10° 01:00:36 10° 290° (WNW) 3,814 11.1 -19.4°
Maximum altitude 01:10:14 77° 207° (SSW) 1,594 8.9 -18.7°
Drops below altitude 10° 01:19:32 10° 123° (ESE) 3,688 10.9 -18.0°
Sets 01:22:31 0° 122° (ESE) 4,658 11.5 -17.8°
